O3B FM13 (43234 NORAD) Tracking and Keplerian Element Data

This shows tracking and keplerian element data for the satellite.

Feedback or suggestion? Click here.




ElementValue
Catalog43234
NameO3B FM13
Epoch Orbit12610
Epoch Day34.31226277
Epoch Year2025
RAAN326.6456
Inclination0.0502
Eccentricity0.0003483
Argument of Perigee354.4321
Mean Anonmoly38.8926
Mean Motion5.00115256
Decay Rate-1.3E-07
L11 43234U 18024D 25034.31226277 -.00000013 00000+0 00000+0 0 9998
L22 43234 0.0502 326.6456 0003483 354.4321 38.8926 5.00115256126108



Live tracking and technical data element details for O3B FM13 (NORAD 43234). O3B FM13 can be tracked NOW for your location showing map with azimuth and elevation plus other details from your city location.







IsCatalogInMostPopularTable: catalog: 43234, numindb: 509
Update: records affected: 1



GetName: 43234 O3B FM13

Hit Count: updated at: Fri, 16 May 2025 11:09:49 GMT